GalileoSat-13

operational
NORAD ID: 41550 Int'l Des: 2016-030 Owner: GSAEU Country: I-EU Constellation: Galileo
MEOCIRCULAR

关于 GalileoSat-13

正在加载描述...

实时位置

正在加载3D地球...

即将过境

高度历史

Altitude vs Time

uPlot chart will show altitude changes over time

两行轨道根数

1 41550U 16030B 25299.00667220 .00000005 00000-0 00000+0 0 9999
2 41550 55.1704 228.1343 0002586 249.1327 110.8568 1.70473503 58676
Epoch: Oct 26, 2025 • Age: 9 hours

当前状态

高度 23227.3 km
速度 3.67 km/s
星下点 -36.84°S, 91.02°W
发射日期 May 24, 2016
运行时间 9.4 years
类型 navigation

技术详情

分类 Payload
质量 733.00 kg
干质量 660.00 kg
总质量 733.00 kg
长度 2.70 m
直径 1.60 m
跨度 14.50 m
形状 Box+2 pan
制造商 OHB
平台类型 GalileoSat
阶段状态 In Orbit
所有者/国家 GSAEU/I-EU

大型星座

Loading constellations...